Weather History for Poplar Bluff, MO

Change the Weather History Date:

Thursday, January 16, 2014

  Actual Average Record
Temperature  
Mean Temperature 40 °F -  
Max Temperature 53 °F 42 °F 71 °F (1952)
Min Temperature 28 °F 22 °F 2 °F (1972)
Degree Days  
Heating Degree Days 24    
Moisture  
Dew Point 22 °F    
Average Humidity 49    
Maximum Humidity 67    
Minimum Humidity 29    
Precipitation  
Precipitation 0.00 in - - ()
Sea Level Pressure  
Sea Level Pressure 29.88 in    
Wind  
Wind Speed 10 mph (SW)    
Max Wind Speed 21 mph    
Max Gust Speed 30 mph    
Visibility 10 miles    
Events      
Averages and records for this station are not official NWS values.
T = Trace of Precipitation, MM = Missing Value Source: NWS Daily Summary

Daily Weather History Graph

Daily Weather History Graph

Search for Another Location

Airport:

Trip Planner

Search our weather history database for the weather conditions in past years. The results will help you decide how hot, cold, wet, or windy it might be!

Date:

Astronomy

Jan. 16, 2014 Rise Set
Actual Time 7:12 AM CST 5:09 PM CST
Civil Twilight 6:44 AM CST 5:38 PM CST
Nautical Twilight 6:12 AM CST 6:09 PM CST
Astronomical Twilight 5:41 AM CST 6:40 PM CST
Moon 5:59 PM CST (1/16) 7:08 AM CST (1/16)
Length of Visible Light 10h 53m
Length of Day
9h 57m
Full, 100% of the Moon is Illuminated
Jan 16
Full
Jan 23
Last Quarter
Jan 30
New
Feb 6
First Quarter
Feb 14
Full

Hourly Weather History & Observations

Time (CST) Temp. Windchill Dew Point Humidity Pressure Visibility Wind Dir Wind Speed Gust Speed Precip Events Conditions
12:53 AM 28.9 °F 25.2 °F 19.0 °F 67% 30.06 in 10.0 mi SSW 3.5 mph - N/A   Overcast
1:53 AM 30.0 °F 23.2 °F 18.0 °F 61% 30.04 in 10.0 mi South 6.9 mph - N/A   Overcast
2:53 AM 30.9 °F 23.5 °F 18.0 °F 59% 30.01 in 10.0 mi South 8.1 mph - N/A   Overcast
3:53 AM 30.9 °F 22.2 °F 17.1 °F 57% 29.99 in 10.0 mi SSW 10.4 mph - N/A   Overcast
4:53 AM 32.0 °F 24.8 °F 19.0 °F 59% 29.97 in 10.0 mi South 8.1 mph - N/A   Overcast
5:53 AM 32.0 °F 23.6 °F 19.0 °F 59% 29.93 in 10.0 mi South 10.4 mph - N/A   Overcast
6:53 AM 33.1 °F 24.4 °F 19.0 °F 56% 29.91 in 10.0 mi South 11.5 mph - N/A   Overcast
7:53 AM 33.1 °F 23.9 °F 19.0 °F 56% 29.91 in 10.0 mi South 12.7 mph - N/A   Mostly Cloudy
8:53 AM 34.0 °F 25.0 °F 21.0 °F 59% 29.88 in 10.0 mi South 12.7 mph - N/A   Mostly Cloudy
9:53 AM 39.0 °F 30.3 °F 23.0 °F 53% 29.89 in 10.0 mi SW 16.1 mph 25.3 mph N/A   Clear
10:53 AM 39.9 °F 31.1 °F 24.1 °F 53% 29.86 in 10.0 mi SSW 17.3 mph - N/A   Clear
11:53 AM 43.0 °F 35.4 °F 26.1 °F 51% 29.80 in 10.0 mi SSW 16.1 mph - N/A   Clear
12:53 PM 46.0 °F 40.2 °F 28.0 °F 50% 29.77 in 10.0 mi SSW 12.7 mph - N/A   Partly Cloudy
1:53 PM 48.0 °F - 30.9 °F 52% 29.76 in 10.0 mi South 12.7 mph - N/A   Mostly Cloudy
2:53 PM 48.9 °F - 30.9 °F 50% 29.77 in 10.0 mi SSW 8.1 mph - N/A   Mostly Cloudy
3:20 PM 53.1 °F - 21.0 °F 29% 29.77 in 10.0 mi West 20.7 mph 29.9 mph N/A   Mostly Cloudy
3:53 PM 52.0 °F - 21.0 °F 30% 29.80 in 10.0 mi WNW 18.4 mph 25.3 mph N/A   Mostly Cloudy
4:53 PM 50.0 °F - 19.0 °F 29% 29.83 in 10.0 mi WNW 15.0 mph 24.2 mph N/A   Scattered Clouds
5:53 PM 48.0 °F - 19.9 °F 33% 29.86 in 10.0 mi WNW 10.4 mph - N/A   Mostly Cloudy
6:53 PM 46.0 °F 40.6 °F 19.0 °F 34% 29.87 in 10.0 mi West 11.5 mph - N/A   Partly Cloudy
7:53 PM 44.1 °F 40.8 °F 19.0 °F 37% 29.88 in 10.0 mi West 5.8 mph - N/A   Mostly Cloudy
8:53 PM 43.0 °F 39.5 °F 19.0 °F 38% 29.88 in 10.0 mi West 5.8 mph - N/A   Clear
9:53 PM 37.9 °F 34.4 °F 21.0 °F 51% 29.89 in 10.0 mi WSW 4.6 mph - N/A   Mostly Cloudy
10:53 PM 42.1 °F 35.7 °F 24.1 °F 49% 29.89 in 10.0 mi West 11.5 mph - N/A   Partly Cloudy
11:53 PM 39.0 °F 36.8 °F 24.1 °F 55% 29.88 in 10.0 mi SW 3.5 mph - N/A   Clear